Time,TemperatureF,DewpointF,PressureIn,WindDirection,WindDirectionDegrees,WindSpeedMPH,WindSpeedGustMPH,Humidity,HourlyPrecipIn,Conditions,Clouds,dailyrainin,SoftwareType,DateUTC
2013-09-16 00:13:00,56.0,-99.9,-100.00,NNW,345,4.0,6.0,-999,0.00,,,0.71,,2013-09-16 05:13:00,
2013-09-16 00:22:00,56.0,-99.9,-100.00,NNW,345,4.0,6.0,-999,0.00,,,0.71,,2013-09-16 05:22:00,
2013-09-16 00:44:00,55.0,-99.9,-100.00,North,350,6.0,8.0,-999,0.00,,,0.71,,2013-09-16 05:44:00,
2013-09-16 01:12:00,55.0,-99.9,-100.00,NNW,343,6.0,7.0,-999,0.00,,,0.71,,2013-09-16 06:12:00,
2013-09-16 01:22:00,55.0,-99.9,-100.00,NNW,343,6.0,7.0,-999,0.00,,,0.71,,2013-09-16 06:22:00,
2013-09-16 01:43:00,55.0,-99.9,-100.00,North,3,4.0,6.0,-999,0.00,,,0.71,,2013-09-16 06:43:00,
2013-09-16 01:52:00,55.0,-99.9,-100.00,North,3,4.0,6.0,-999,0.00,,,0.71,,2013-09-16 06:52:00,
2013-09-16 02:12:00,55.0,-99.9,-100.00,NNW,346,4.0,8.0,-999,0.00,,,0.71,,2013-09-16 07:12:00,
2013-09-16 02:22:00,55.0,-99.9,-100.00,NNW,346,4.0,8.0,-999,0.00,,,0.71,,2013-09-16 07:22:00,
2013-09-16 02:43:00,55.0,-99.9,-100.00,North,2,6.0,8.0,-999,0.00,,,0.71,,2013-09-16 07:43:00,
2013-09-16 02:52:00,55.0,-99.9,-100.00,North,2,6.0,8.0,-999,0.00,,,0.71,,2013-09-16 07:52:00,
2013-09-16 03:12:00,55.0,-99.9,-100.00,NNE,13,6.0,7.0,-999,0.00,,,0.71,,2013-09-16 08:12:00,
2013-09-16 03:22:00,55.0,-99.9,-100.00,NNE,13,6.0,7.0,-999,0.00,,,0.71,,2013-09-16 08:22:00,
2013-09-16 03:42:00,55.0,-99.9,-100.00,North,11,5.0,9.0,-999,0.00,,,0.71,,2013-09-16 08:42:00,
2013-09-16 03:52:00,55.0,-99.9,-100.00,North,11,5.0,9.0,-999,0.00,,,0.71,,2013-09-16 08:52:00,
2013-09-16 04:12:00,56.0,-99.9,-100.00,NNE,28,9.0,12.0,-999,0.00,,,0.71,,2013-09-16 09:12:00,
2013-09-16 04:22:00,56.0,-99.9,-100.00,NNE,28,9.0,12.0,-999,0.00,,,0.71,,2013-09-16 09:22:00,
2013-09-16 04:43:00,56.0,-99.9,-100.00,NE,38,9.0,13.0,-999,0.00,,,0.71,,2013-09-16 09:43:00,
2013-09-16 04:53:00,56.0,-99.9,-100.00,NE,38,9.0,13.0,-999,0.00,,,0.71,,2013-09-16 09:53:00,
2013-09-16 05:13:00,56.0,-99.9,-100.00,NE,36,10.0,15.0,-999,0.00,,,0.71,,2013-09-16 10:13:00,
2013-09-16 05:23:00,56.0,-99.9,-100.00,NE,36,10.0,15.0,-999,0.00,,,0.71,,2013-09-16 10:23:00,
2013-09-16 05:42:00,56.0,-99.9,-100.00,NE,43,10.0,14.0,-999,0.00,,,0.71,,2013-09-16 10:42:00,
2013-09-16 05:53:00,56.0,-99.9,-100.00,NE,43,10.0,14.0,-999,0.00,,,0.71,,2013-09-16 10:53:00,
2013-09-16 06:12:00,56.0,-99.9,-100.00,NNE,33,9.0,12.0,-999,0.00,,,0.71,,2013-09-16 11:12:00,
2013-09-16 06:22:00,56.0,-99.9,-100.00,NNE,33,9.0,12.0,-999,0.00,,,0.71,,2013-09-16 11:22:00,
2013-09-16 06:42:00,56.0,-99.9,-100.00,NE,34,8.0,10.0,-999,0.00,,,0.70,,2013-09-16 11:42:00,
2013-09-16 06:52:00,56.0,-99.9,-100.00,NE,34,8.0,10.0,-999,0.00,,,0.70,,2013-09-16 11:52:00,
2013-09-16 07:12:00,56.0,-99.9,-100.00,NNE,25,7.0,11.0,-999,0.00,,,0.70,,2013-09-16 12:12:00,
2013-09-16 07:22:00,56.0,-99.9,-100.00,NNE,25,7.0,11.0,-999,0.00,,,0.70,,2013-09-16 12:22:00,
2013-09-16 07:42:00,56.0,-99.9,-100.00,NNE,25,8.0,12.0,-999,0.00,,,0.70,,2013-09-16 12:42:00,
2013-09-16 07:52:00,56.0,-99.9,-100.00,NNE,25,8.0,12.0,-999,0.00,,,0.70,,2013-09-16 12:52:00,
2013-09-16 08:11:00,56.0,-99.9,-100.00,NNE,31,6.0,9.0,-999,0.00,,,0.70,,2013-09-16 13:11:00,
2013-09-16 08:22:00,56.0,-99.9,-100.00,NNE,31,6.0,9.0,-999,0.00,,,0.70,,2013-09-16 13:22:00,
2013-09-16 08:30:00,55.0,-99.9,-100.00,ENE,60,11.0,13.0,-999,0.00,,,0.57,,2013-09-16 13:30:00,
2013-09-16 08:42:00,55.0,-99.9,-100.00,NE,50,10.0,15.0,-999,0.00,,,0.64,,2013-09-16 13:42:00,
2013-09-16 08:53:00,55.0,-99.9,-100.00,NE,50,10.0,15.0,-999,0.00,,,0.64,,2013-09-16 13:53:00,
2013-09-16 09:11:00,55.0,-99.9,-100.00,ENE,60,11.0,13.0,-999,0.00,,,0.57,,2013-09-16 14:11:00,
2013-09-16 09:22:00,55.0,-99.9,-100.00,ENE,60,11.0,13.0,-999,0.00,,,0.57,,2013-09-16 14:22:00,
2013-09-16 10:12:00,54.0,-99.9,-100.00,NNE,19,7.0,10.0,-999,0.00,,,0.44,,2013-09-16 15:12:00,
2013-09-16 10:22:00,54.0,-99.9,-100.00,NNE,19,7.0,10.0,-999,0.00,,,0.44,,2013-09-16 15:22:00,
2013-09-16 10:43:00,54.0,-99.9,-100.00,NNE,28,8.0,12.0,-999,0.00,,,0.26,,2013-09-16 15:43:00,
2013-09-16 10:53:00,54.0,-99.9,-100.00,NNE,28,8.0,12.0,-999,0.00,,,0.26,,2013-09-16 15:53:00,
2013-09-16 11:12:00,55.0,-99.9,-100.00,ENE,59,9.0,13.0,-999,0.00,,,0.25,,2013-09-16 16:12:00,
2013-09-16 11:23:00,55.0,-99.9,-100.00,ENE,59,9.0,13.0,-999,0.00,,,0.25,,2013-09-16 16:23:00,
2013-09-16 11:43:00,56.0,-99.9,-100.00,NE,52,9.0,13.0,-999,0.00,,,0.24,,2013-09-16 16:43:00,
2013-09-16 11:52:00,56.0,-99.9,-100.00,NE,52,9.0,13.0,-999,0.00,,,0.24,,2013-09-16 16:52:00,
2013-09-16 12:12:00,57.0,-99.9,-100.00,NE,37,6.0,11.0,-999,0.00,,,0.24,,2013-09-16 17:12:00,
2013-09-16 12:23:00,57.0,-99.9,-100.00,NE,37,6.0,11.0,-999,0.00,,,0.24,,2013-09-16 17:23:00,
2013-09-16 12:43:00,60.0,-99.9,-100.00,ENE,64,8.0,12.0,-999,0.00,,,0.24,,2013-09-16 17:43:00,
2013-09-16 12:53:00,60.0,-99.9,-100.00,ENE,64,8.0,12.0,-999,0.00,,,0.24,,2013-09-16 17:53:00,
2013-09-16 13:12:00,61.0,-99.9,-100.00,ENE,63,5.0,10.0,-999,0.00,,,0.24,,2013-09-16 18:12:00,
2013-09-16 13:22:00,61.0,-99.9,-100.00,ENE,63,5.0,10.0,-999,0.00,,,0.24,,2013-09-16 18:22:00,
2013-09-16 13:42:00,62.0,-99.9,-100.00,East,90,9.0,11.0,-999,0.00,,,0.24,,2013-09-16 18:42:00,
2013-09-16 13:52:00,62.0,-99.9,-100.00,East,90,9.0,11.0,-999,0.00,,,0.24,,2013-09-16 18:52:00,
2013-09-16 14:11:00,63.0,-99.9,-100.00,East,93,7.0,10.0,-999,0.00,,,0.24,,2013-09-16 19:11:00,
2013-09-16 14:22:00,63.0,-99.9,-100.00,East,93,7.0,10.0,-999,0.00,,,0.24,,2013-09-16 19:22:00,
2013-09-16 14:42:00,64.0,-99.9,-100.00,East,92,8.0,11.0,-999,0.00,,,0.24,,2013-09-16 19:42:00,
2013-09-16 14:53:00,64.0,-99.9,-100.00,East,92,8.0,11.0,-999,0.00,,,0.24,,2013-09-16 19:53:00,
2013-09-16 15:11:00,65.0,-99.9,-100.00,East,94,6.0,8.0,-999,0.00,,,0.19,,2013-09-16 20:11:00,
2013-09-16 15:22:00,65.0,-99.9,-100.00,East,94,6.0,8.0,-999,0.00,,,0.19,,2013-09-16 20:22:00,
2013-09-16 15:43:00,68.0,-99.9,-100.00,ENE,68,8.0,11.0,-999,0.00,,,0.06,,2013-09-16 20:43:00,
2013-09-16 15:52:00,68.0,-99.9,-100.00,ENE,68,8.0,11.0,-999,0.00,,,0.06,,2013-09-16 20:52:00,
2013-09-16 16:12:00,68.0,-99.9,-100.00,NE,54,6.0,8.0,-999,0.00,,,0.00,,2013-09-16 21:12:00,
2013-09-16 16:22:00,68.0,-99.9,-100.00,NE,54,6.0,8.0,-999,0.00,,,0.00,,2013-09-16 21:22:00,
2013-09-16 16:44:00,67.0,-99.9,-100.00,NE,51,7.0,10.0,-999,0.00,,,0.00,,2013-09-16 21:44:00,
2013-09-16 16:56:00,67.0,-99.9,-100.00,NE,51,7.0,10.0,-999,0.00,,,0.00,,2013-09-16 21:56:00,
2013-09-16 17:13:00,68.0,-99.9,-100.00,ENE,75,9.0,12.0,-999,0.00,,,0.00,,2013-09-16 22:13:00,
2013-09-16 17:25:00,68.0,-99.9,-100.00,ENE,75,9.0,12.0,-999,0.00,,,0.00,,2013-09-16 22:25:00,
2013-09-16 17:43:00,68.0,-99.9,-100.00,East,97,7.0,10.0,-999,0.00,,,0.00,,2013-09-16 22:43:00,
2013-09-16 17:54:00,68.0,-99.9,-100.00,East,97,7.0,10.0,-999,0.00,,,0.00,,2013-09-16 22:54:00,
2013-09-16 18:12:00,68.0,-99.9,-100.00,ENE,70,10.0,13.0,-999,0.00,,,0.00,,2013-09-16 23:12:00,
2013-09-16 18:22:00,68.0,-99.9,-100.00,ENE,70,10.0,13.0,-999,0.00,,,0.00,,2013-09-16 23:22:00,
2013-09-16 18:43:00,68.0,-99.9,-100.00,ENE,75,9.0,11.0,-999,0.00,,,0.00,,2013-09-16 23:43:00,
2013-09-16 19:11:00,68.0,-99.9,-100.00,ENE,75,8.0,11.0,-999,0.00,,,0.00,,2013-09-17 00:11:00,
2013-09-16 19:22:00,68.0,-99.9,-100.00,ENE,75,8.0,11.0,-999,0.00,,,0.00,,2013-09-17 00:22:00,
2013-09-16 19:42:00,65.0,-99.9,-100.00,NNE,33,5.0,7.0,-999,0.00,,,0.00,,2013-09-17 00:42:00,
2013-09-16 19:52:00,65.0,-99.9,-100.00,NNE,33,5.0,7.0,-999,0.00,,,0.00,,2013-09-17 00:52:00,
2013-09-16 20:12:00,63.0,-99.9,-100.00,NE,38,3.0,5.0,-999,0.00,,,0.00,,2013-09-17 01:12:00,
2013-09-16 20:22:00,63.0,-99.9,-100.00,NE,38,3.0,5.0,-999,0.00,,,0.00,,2013-09-17 01:22:00,
2013-09-16 20:42:00,62.0,-99.9,-100.00,NE,35,3.0,4.0,-999,0.00,,,0.00,,2013-09-17 01:42:00,
2013-09-16 20:52:00,62.0,-99.9,-100.00,NE,35,3.0,4.0,-999,0.00,,,0.00,,2013-09-17 01:52:00,
2013-09-16 21:12:00,61.0,-99.9,-100.00,NNE,31,4.0,5.0,-999,0.00,,,0.00,,2013-09-17 02:12:00,
2013-09-16 21:22:00,61.0,-99.9,-100.00,NNE,31,4.0,5.0,-999,0.00,,,0.00,,2013-09-17 02:22:00,
2013-09-16 21:30:00,61.0,-99.9,-100.00,ENE,66,7.0,10.0,-999,0.00,,,0.00,,2013-09-17 02:30:00,
2013-09-16 21:42:00,61.0,-99.9,-100.00,NE,38,5.0,8.0,-999,0.00,,,0.00,,2013-09-17 02:42:00,
2013-09-16 21:53:00,61.0,-99.9,-100.00,NE,38,5.0,8.0,-999,0.00,,,0.00,,2013-09-17 02:53:00,
2013-09-16 22:12:00,61.0,-99.9,-100.00,ENE,66,7.0,10.0,-999,0.00,,,0.00,,2013-09-17 03:12:00,
2013-09-16 22:23:00,61.0,-99.9,-100.00,ENE,66,7.0,10.0,-999,0.00,,,0.00,,2013-09-17 03:23:00,
2013-09-16 22:30:00,59.0,-99.9,-100.00,East,88,13.0,16.0,-999,0.00,,,0.00,,2013-09-17 03:30:00,
2013-09-16 23:14:00,59.0,-99.9,-100.00,East,88,13.0,16.0,-999,0.00,,,0.00,,2013-09-17 04:14:00,
2013-09-16 23:24:00,59.0,-99.9,-100.00,East,88,13.0,16.0,-999,0.00,,,0.00,,2013-09-17 04:24:00,